Vorticity
11 9 11 9 13 14 18 12 10 20 17 21 15 17 9 20 -4 -6 -5 -3 19 17
13 9 9 10 10 16 13 13 14 15 22 13 19 28 28 33 -4 -8 10 4 -3 5
18 12 8 9 9 10 15 13 16 17 19 18 18 17 56 3 -0 26 16 37 -7 7
22 17 11 9 9 10 12 14 14 16 16 26 13 17 38 21 2 -3 -12 -22 -6 -14
14 22 17 13 10 10 11 12 14 15 17 21 20 14 15 30 27 32 22 15 2 14
10 12 21 18 13 9 11 12 14 16 16 15 28 14 16 32 35 24 10 -7 16 7
8 10 14 21 16 10 12 13 14 17 16 15 27 16 10 24 35 19 22 -7 -3 12
11 9 10 17 20 12 12 13 14 17 15 19 19 19 16 20 20 34 31 20 7 -11
13 10 11 8 21 15 13 13 13 14 15 19 17 21 22 15 19 36 35 17 -2 26
11 13 9 11 9 20 14 13 13 12 13 14 15 21 26 12 25 42 21 26 20 26
12 10 12 9 11 15 17 14 13 11 11 13 10 14 26 16 33 43 12 25 22 1
4 11 10 12 10 7 19 16 15 9 12 13 12 10 15 22 34 24 32 17 33 12
6 5 10 9 11 11 7 20 15 12 7 9 10 14 14 20 26 23 36 5 30 57
8 4 6 11 9 10 11 11 19 15 9 5 6 11 18 19 20 23 39 16 12 36
Height
2994 2991 2987 2983 2980 2977 2974 2973 2972 2970 2970 2972 2976 2980 2984 2994 3002 3010 3018 3023 3029 3035
2986 2982 2979 2975 2971 2968 2964 2962 2961 2959 2959 2961 2963 2965 2970 2977 2989 2995 3004 3011 3019 3025
2977 2974 2970 2966 2963 2960 2956 2952 2950 2949 2948 2949 2950 2953 2955 2963 2972 2981 2991 2999 3007 3015
2969 2965 2961 2958 2954 2951 2947 2944 2941 2939 2938 2937 2938 2940 2942 2950 2956 2964 2975 2984 2994 3003
2963 2958 2953 2950 2946 2943 2939 2936 2932 2929 2927 2926 2926 2929 2930 2934 2941 2950 2959 2971 2982 2990
2958 2952 2947 2942 2939 2935 2931 2927 2924 2921 2918 2916 2916 2918 2920 2921 2927 2935 2945 2956 2967 2977
2953 2948 2942 2936 2931 2928 2924 2920 2916 2913 2910 2907 2906 2907 2909 2909 2913 2918 2929 2943 2954 2964
2948 2942 2936 2930 2925 2921 2917 2913 2909 2905 2903 2900 2897 2897 2898 2898 2900 2906 2915 2928 2939 2951
2944 2938 2932 2925 2919 2914 2911 2907 2903 2899 2895 2892 2890 2888 2888 2888 2891 2895 2901 2913 2926 2937
2939 2933 2927 2921 2915 2909 2905 2901 2897 2893 2889 2886 2883 2880 2878 2877 2879 2881 2889 2898 2912 2924
2935 2929 2923 2916 2911 2905 2899 2895 2891 2888 2884 2880 2877 2873 2868 2867 2868 2870 2878 2888 2899 2912
2930 2924 2918 2912 2907 2901 2895 2891 2887 2883 2879 2874 2871 2867 2864 2863 2864 2863 2870 2879 2888 2898
2924 2919 2913 2907 2901 2896 2890 2885 2881 2879 2875 2870 2866 2863 2859 2854 2854 2856 2862 2872 2879 2885
2917 2913 2907 2902 2896 2891 2886 2881 2876 2873 2871 2867 2864 2861 2857 2854 2852 2854 2855 2861 2866 2873